Regional Weather Roundup
Issued by NWS Kansas City/Pleasant Hill, MO

Home | Current Version | Previous Version | Text Only | Print | Product List | Glossary On
Versions: 1 2 3 4 5 6 7 8 9 10 11 12 13 14 15 16 17 18 19 20 21 22 23 24 25 26 27 28 29 30 31 32 33 34 35 36 37 38 39 40 41 42 43 44 45 46 47 48 49 50
000
ASUS43 KEAX 050404
RWREAX

WEATHER ROUNDUP FOR EASTERN KANSAS AND NORTHWEST MISSOURI
NATIONAL WEATHER SERVICE KANSAS CITY/PLEASANT HILL MO
1000 PM CST WED MAR 04 2015

KSZ040-057-103>105-MOZ028-029-037-043-050500-
...KANSAS CITY METROPOLITAN AREA...

CITY           SKY/WX    TMP DP  RH WIND       PRES   REMARKS
K.C. INTL      MOCLDY    23   5  46 N14       30.40R WCI  11
K.C. DOWNTOWN  MOCLDY    27   5  39 N12       30.41R WCI  17
LEES SUMMIT    CLOUDY    23   8  52 NW5       30.38S WCI  17
OLATHE - IXD   MOCLDY    23  11  60 W5        30.39S WCI  17
OLATHE - OJC   MOCLDY    25   9  50 NW5       30.38R WCI  19
LAWRENCE       PTCLDY    23   7  50 N9        30.42R WCI  13

$$

MOZ001>008-011>017-020>025-030>033-038>040-044>046-053-054-050500-
...NORTHERN AND CENTRAL MISSOURI...

CITY           SKY/WX    TMP DP  RH WIND       PRES   REMARKS
ST. JOSEPH     PTCLDY    18   3  52 N10       30.44R WCI   6
MOSBY          CLOUDY    27   3  36 N9        30.41S WCI  17
WARRENSBURG    CLOUDY    23  12  63 CALM      30.40R
WHITEMAN AFB   NOT AVBL
CLINTON        CLOUDY    27  12  54 MISG      30.40R
SEDALIA        CLOUDY    24   9  52 W3        30.38S
WARSAW         NOT AVBL
MARSHALL       CLOUDY    27  12  54 CALM      30.39R
CHILLICOTHE      N/A     24   7  48 N13       30.42R WCI  12
MOBERLY        MOCLDY    23   9  54 S3        30.38R
KIRKSVILLE     NOT AVBL

$$

MOZ041-047>049-056>058-063>065-088>090-097-050500-
...EASTERN AND SOUTHERN MISSOURI...

CITY           SKY/WX    TMP DP  RH WIND       PRES   REMARKS
ST. LOUIS INTL CLOUDY    23   4  44 N9        30.39R WCI  13
SPIRIT OF STL  CLOUDY    23   1  38 NE8       30.39S WCI  14
COLUMBIA       CLOUDY    22   7  52 CALM      30.36R
JEFFERSON CITY CLOUDY    23   4  44 CALM      30.40R
MEXICO         MOCLDY    23  12  63 CALM      30.37S
ROLLA          CLOUDY    21   6  52 N6        30.32R WCI  13
OSAGE BEACH    CLOUDY    23   3  42 CALM      30.37R
SPRINGFIELD    CLOUDY    23   9  55 N9        30.34R WCI  13
NEVADA         MOCLDY    23  10  58 CALM      30.41R
JOPLIN         CLOUDY    24   7  48 N6        30.39R WCI  17
WEST PLAINS    CLOUDY    20  10  65 N6        30.31R WCI  12

$$

IAZ060-094-KSZ022-034>040-054-083-096-NEZ052-066-093-050500-
...KANSAS...SOUTHEAST NEBRASKA AND IOWA...

CITY           SKY/WX    TMP DP  RH WIND       PRES   REMARKS
TOPEKA         PTCLDY    23   7  50 N7        30.42R WCI  15
MANHATTAN      CLEAR     21   8  57 CALM      30.42R
EMPORIA        PTCLDY    21   9  59 NW5       30.40R WCI  15
CHANUTE        CLOUDY    25  10  53 CALM      30.41R
WICHITA        MOCLDY    25   9  50 N3        30.41R
OMAHA          CLEAR     12   0  58 N9        30.46R WCI   0
LINCOLN        CLEAR     13  -1  54 N12       30.46R WCI  -1
FALLS CITY     PTCLDY    17   0  47 N7        30.44R WCI   8
LAMONI         PTCLDY    15   1  53 N12       30.41R WCI   2
DES MOINES     PTCLDY    14   3  61 N14       30.42R WCI  -1

$$




USA.gov is the U.S. government's official web portal to all federal, state and local government web resources and services.